Regional Weather Roundup
Issued by NWS

Home | Current Version | Previous Version | Text Only | Print | Product List | Glossary Off
Versions: 1 2 3 4 5 6 7 8 9 10 11 12 13 14 15 16 17 18 19 20 21 22 23 24 25 26 27 28 29 30 31 32 33 34 35 36 37 38 39 40 41 42 43 44 45 46 47 48 49 50

000
ASUS43 KFSD 030802
RWRSD

WEATHER ROUNDUP FOR SOUTH DAKOTA
NATIONAL WEATHER SERVICE SIOUX FALLS SD
200 AM CST SAT DEC 03 2016

NOTE: "FAIR" INDICATES FEW OR NO CLOUDS BELOW 12,000 FEET WITH NO
SIGNIFICANT WEATHER AND/OR OBSTRUCTIONS TO VISIBILITY.


SDZ001>005-009-010-012>017-030900-
NORTHWEST AND NORTH CENTRAL SOUTH DAKOTA

CITY           SKY/WX    TMP DP  RH WIND       PRES   REMARKS
BUFFALO          N/A     21  19  92 S10       29.94F WCI  10
FAITH            N/A     16  14  92 S16       30.07F WCI   1
MOBRIDGE       CLOUDY    27  24  89 S12       30.13F WCI  17
$$

SDZ012>016-024>037-041>051-057-063-072>074-030900-
SOUTHWEST AND SOUTH CENTRAL SOUTH DAKOTA

CITY           SKY/WX    TMP DP  RH WIND       PRES   REMARKS
RAPID CTY ARPT CLEAR     18  15  88 SE7       30.06F WCI   9
PIERRE         CLEAR     20  18  92 SE8       30.18F WCI  10
CUSTER         FLURRIES  24  19  81 VRB3      30.00F
ELLSWORTH AFB  CLEAR     23  20  87 SE7       30.04F WCI  15
PHILIP         CLEAR      9   6  88 CALM      30.14F
PINE RIDGE     MOCLDY    22  19  89 SW8       30.11F WCI  12
SPEARFISH      MIX PCPN  34  19  55 SW15G31   29.97F WCI  24
WINNER         FAIR      26  22  84 S6        30.20  WCI  19
$$

SDZ004>011-016>023-039-040-030900-
NORTHEAST SOUTH DAKOTA

CITY           SKY/WX    TMP DP  RH WIND       PRES   REMARKS
ABERDEEN       CLOUDY    27  22  81 SE8       30.24  WCI  19
WATERTOWN      CLOUDY    24  17  74 W7        30.24  WCI  16
SISSETON         N/A     27  19  72 CALM      30.27F
$$

SDZ017-020-022-023-036>040-048>070-030900-
SOUTHEAST SOUTH DAKOTA

CITY           SKY/WX    TMP DP  RH WIND       PRES   REMARKS
SIOUX FALLS    MOCLDY    28  24  85 SW3       30.29S
HURON          CLEAR     25  24  96 SE6       30.26F WCI  18
CHAMBERLAIN    CLEAR     24  24  98 SE5       30.23F WCI  18
MITCHELL       CLEAR     26  24  92 S7        30.28  WCI  18
YANKTON        PTCLDY    27  21  80 CALM      30.31S
$$

ABBREVIATIONS USED IN REMARKS
   TC - TEMPERATURE IN CELSIUS
  WCI - WIND CHILL INDEX
   HX - HEAT INDEX
  VSB - VISIBILITY





USA.gov is the U.S. government's official web portal to all federal, state and local government web resources and services.